[[{"header":{"parameterUnit":"m.s-1","parameterCategory":1,"la1":30.2991,"la2":30.254,"lo1":-89.0895,"lo2":-89.0444,"dy":0.0017,"dx":0.0017,"nx":28,"ny":28,"refTime":"2023-09-18T21:00:00:Z","depth":0,"parameterNumber":2,"parameterNumberName":"U-component_of_WINDS"},"data":[0,0,0,0,0,0,0,0,0,0,0,0,0,0,0,0,0,0,0,0,0,0,0,0,0,0,0,0,0,0,0,0,0,0,0,0,0,0,0,0,0,0,0,0,0,0,0,0,0,0,0,0,0,0,0,0,0,0,-3.0081,-3.0083,0,-3.026,-3.0262,-3.0264,-3.03,-3.0298,-3.0297,-3.0296,-3.0482,-3.0488,-3.0494,0,0,0,0,0,0,0,0,0,0,0,0,0,-2.977,-2.9776,-3.008,-3.0083,-3.0085,-3.026,-3.0262,-3.0265,-3.03,-3.0298,-3.0297,-3.0295,-3.048,-3.0487,-3.0495,0,0,0,0,0,0,0,0,0,0,0,0,0,-2.9923,-2.9778,-3.008,-3.0124,-3.0129,-3.0259,-3.0262,-3.0266,-3.03,-3.0298,-3.0296,-3.0294,-3.0477,-3.0487,-3.0496,-3.0596,0,0,-3.0525,-3.0529,0,0,0,0,0,0,0,0,-2.9914,-2.9934,-3.0115,-3.0121,-3.0127,-3.0255,-3.0221,-3.0376,-3.0301,-3.0235,-3.0296,-3.0293,-3.0408,-3.0423,-3.0462,-3.0605,-3.0613,-3.0525,-3.0531,-3.0535,-3.0538,0,0,0,0,0,0,0,-2.9904,-2.9927,-3.0152,-3.0117,-3.0125,-3.0135,-3.0154,-3.0251,-3.0332,-3.0241,-3.0244,-3.0265,-3.0411,-3.0453,-3.0466,-3.0616,-3.0525,-3.0534,-3.0539,-3.0543,-3.0852,-3.0855,0,0,0,0,0,0,-2.9885,-2.9918,-3.0146,-3.0157,-3.0013,-3.0142,-3.0164,-3.0216,-3.0331,-3.0346,-3.0266,-3.0266,-3.0438,-3.0455,-3.0473,-3.06,-3.0535,-3.0544,-3.0549,-3.085,-3.0853,-3.0856,0,0,0,0,0,0,-2.9878,-2.9905,-3.0139,-3.0038,-3.0069,-3.015,-3.0209,-3.0221,-3.0262,-3.035,-3.0365,-3.0293,-3.0437,-3.046,-3.0566,-3.0607,-3.0548,-3.0557,-3.0847,-3.0851,-3.0854,-3.0853,0,0,0,0,0,0,-2.9869,-2.9903,-2.9941,-3.0039,-3.0074,-3.0227,-3.0211,-3.0226,-3.0278,-3.0279,-3.0379,-3.0394,-3.0437,-3.0551,-3.0575,-3.0619,-3.0564,-3.0844,-3.0849,-3.0853,-3.085,-3.0857,-3.0862,0,0,0,0,0,-2.9858,-2.9933,-2.9942,-2.997,-3.0123,-3.023,-3.025,-3.0297,-3.0281,-3.0321,-3.0378,-3.0391,-3.0598,-3.0562,-3.0589,-3.0636,-3.0841,-3.0847,-3.0853,-3.0847,-3.0855,-3.0862,0,0,0,0,0,0,-2.9838,-2.9947,-2.9958,-3.0067,-3.0139,-3.0235,-3.0287,-3.0304,-3.0382,-3.038,-3.0436,-3.0458,-3.0561,-3.0609,-3.0567,-3.074,-3.0719,-3.073,-3.0706,-3.0714,-3.072,-3.0707,-3.0572,0,0,0,0,0,-2.9846,-2.9923,-3.0014,-3.0101,-3.0136,-3.0205,-3.0253,-3.0284,-3.036,-3.0391,-3.0455,-3.053,-3.0612,-3.0665,-3.0746,-3.0856,-3.088,-3.0902,-3.0908,-3.0913,-3.0923,-3.0988,-3.0999,-3.0875,-3.0875,-3.0875,0,0,-2.9864,-2.9933,-2.9978,-3.0099,-3.0158,-3.0237,-3.0231,-3.0314,-3.0374,-3.0404,-3.0508,-3.0558,-3.0645,-3.0754,-3.0806,-3.0797,-3.0962,-3.092,-3.0923,-3.0931,-3.0995,-3.1006,-3.1017,-3.0879,-3.0878,-3.0877,0,0,-2.9938,-2.9997,-3.0077,-3.0136,-3.0226,-3.0271,-3.029,-3.0385,-3.0419,-3.0524,-3.0549,-3.0621,-3.0761,-3.0823,-3.0872,-3.097,-3.0986,-3.0995,-3.1028,-3.109,-3.11,-3.1109,-3.1146,-3.1158,-3.1004,-3.1004,-3.1004,0,-2.995,-3.0069,-3.0116,-3.02,-3.0253,-3.0283,-3.0366,-3.0421,-3.0532,-3.0569,-3.0558,-3.0735,-3.0796,-3.0921,-3.0945,-3.0983,-3.1009,-3.0985,-3.1094,-3.1104,-3.1113,-3.1149,-3.1163,-3.1005,-3.1004,-3.1004,-3.1004,0,-3.008,-3.0162,-3.0216,-3.0323,-3.0382,-3.0464,-3.0526,-3.058,-3.0605,-3.0652,-3.076,-3.0834,-3.093,-3.0962,-3.0987,-3.1092,-3.1084,-3.1083,-3.1063,-3.1125,-3.116,-3.1174,-3.1005,-3.1005,-3.1005,-3.1005,0,0,-3.0147,-3.0279,-3.0298,-3.0348,-3.0449,-3.0514,-3.0598,-3.0692,-3.0739,-3.0814,-3.0888,-3.1006,-3.1006,-3.1062,-3.1095,-3.1149,-3.1225,-3.1142,-3.1145,-3.1157,-3.1347,-3.1349,-3.1364,-3.1235,-3.1238,-3.124,-3.1341,0,-3.0235,-3.0385,-3.0431,-3.0558,-3.0636,-3.0666,-3.074,-3.081,-3.0856,-3.093,-3.0981,-3.1065,-3.1057,-3.1092,-3.1147,-3.1204,-3.1264,-3.1197,-3.1306,-3.131,-3.1286,-3.1383,-3.1385,-3.1476,-3.1355,-3.1357,-3.1359,0,-3.0357,-3.0435,-3.057,-3.0662,-3.0697,-3.0762,-3.0853,-3.0922,-3.1004,-3.1034,-3.1097,-3.1125,-3.1216,-3.1189,-3.1316,-3.1269,-3.1317,-3.1352,-3.1356,-3.137,-3.1339,-3.1401,-3.1506,-3.1521,-3.138,-3.1379,-3.1377,0,-3.0396,-3.0534,-3.0633,-3.0674,-3.0784,-3.083,-3.0878,-3.0957,-3.1011,-3.109,-3.1127,-3.1215,-3.1265,-3.1334,-3.1386,-3.1361,-3.151,-3.1487,-3.1539,-3.1538,-3.1571,-3.1568,-3.1687,-3.1597,-3.1597,-3.1596,-3.1596,0,-3.049,-3.0572,-3.0652,-3.0714,-3.0807,-3.0858,-3.095,-3.0999,-3.1069,-3.1142,-3.1172,-3.124,-3.1304,-3.138,-3.1421,-3.1522,-3.1543,-3.1572,-3.1582,-3.157,-3.1567,-3.1604,-3.16,-3.16,-3.1599,-3.1599,-3.1598,0,-3.055,-3.0607,-3.0717,-3.0812,-3.0837,-3.0902,-3.0984,-3.1045,-3.1092,-3.1184,-3.1208,-3.1283,-3.1375,-3.1433,-3.155,-3.1577,-3.1688,-3.1696,-3.1661,-3.1666,-3.1716,-3.1712,-3.1865,-3.1889,-3.178,-3.1781,-3.1782,0,-3.0608,-3.0672,-3.0773,-3.0824,-3.0872,-3.0952,-3.1008,-3.1061,-3.1118,-3.1216,-3.1266,-3.136,-3.1438,-3.1583,-3.1649,-3.1739,-3.175,-3.1797,-3.1764,-3.1751,-3.1754,-3.175,-3.1758,-3.1804,-3.1804,-3.1805,-3.1806,0,-3.0705,-3.073,-3.0809,-3.0897,-3.0963,-3.1035,-3.1108,-3.1147,-3.1213,-3.1276,-3.137,-3.143,-3.155,-3.1643,-3.1739,-3.179,-3.181,-3.1815,-3.1833,-3.1823,-3.1801,-3.1816,-3.1679,-3.1812,-3.1812,-3.1811,-3.1811,-3.1811,-3.0768,-3.0827,-3.0908,-3.0994,-3.1054,-3.1122,-3.1185,-3.1239,-3.1318,-3.1419,-3.1446,-3.1545,-3.1626,-3.1757,-3.181,-3.1889,-3.1883,-3.1907,-3.1914,-3.192,-3.1922,-3.1786,-3.1906,-3.1906,-3.1906,-3.1906,-3.1906,0,-3.0869,-3.0922,-3.1002,-3.1102,-3.1171,-3.1182,-3.1263,-3.132,-3.1407,-3.148,-3.1556,-3.1665,-3.1756,-3.1828,-3.1922,-3.1972,-3.1984,-3.1995,-3.1994,-3.2006,-3.1921,-3.1898,-3.1984,-3.1984,-3.1984,-3.1984,-3.1984,-3.1984,-3.093,-3.1031,-3.1065,-3.1197,-3.125,-3.1347,-3.1392,-3.1455,-3.1514,-3.1634,-3.171,-3.1756,-3.183,-3.193,-3.2014,-3.2034,-3.2068,-3.2078,-3.2099,-3.202,-3.2011,-3.2003,-3.1982,-3.2084,-3.2085,-3.2178,-3.2179,-3.2179]},{"header":{"parameterUnit":"m.s-1","parameterCategory":1,"la1":30.2991,"la2":30.254,"lo1":-89.0895,"lo2":-89.0444,"dy":0.0017,"dx":0.0017,"nx":28,"ny":28,"refTime":"2023-09-18T21:00:00:Z","depth":0,"parameterNumber":3,"parameterNumberName":"V-component_of_WINDS"},"data":[0,0,0,0,0,0,0,0,0,0,0,0,0,0,0,0,0,0,0,0,0,0,0,0,0,0,0,0,0,0,0,0,0,0,0,0,0,0,0,0,0,0,0,0,0,0,0,0,0,0,0,0,0,0,0,0,0,0,-3.4308,-3.4308,0,-3.4315,-3.4315,-3.4315,-3.4253,-3.4251,-3.4249,-3.4248,-3.4254,-3.4256,-3.4258,0,0,0,0,0,0,0,0,0,0,0,0,0,-3.4241,-3.4242,-3.4308,-3.4308,-3.4308,-3.4315,-3.4315,-3.4315,-3.4253,-3.4251,-3.4249,-3.4247,-3.4254,-3.4256,-3.4258,0,0,0,0,0,0,0,0,0,0,0,0,0,-3.4261,-3.4243,-3.4308,-3.4278,-3.4276,-3.4315,-3.4315,-3.4315,-3.4254,-3.4251,-3.4248,-3.4246,-3.4253,-3.4256,-3.4258,-3.4326,0,0,-3.4266,-3.4267,0,0,0,0,0,0,0,0,-3.426,-3.4263,-3.4282,-3.428,-3.4277,-3.428,-3.4293,-3.4319,-3.4254,-3.4262,-3.4248,-3.4245,-3.4265,-3.4266,-3.4273,-3.4326,-3.4327,-3.4267,-3.4268,-3.4269,-3.427,0,0,0,0,0,0,0,-3.4259,-3.4263,-3.4311,-3.4283,-3.428,-3.4264,-3.4264,-3.4298,-3.4278,-3.4261,-3.4257,-3.4258,-3.4263,-3.4271,-3.4273,-3.4327,-3.4266,-3.4269,-3.427,-3.4271,-3.4435,-3.4438,0,0,0,0,0,0,-3.4261,-3.4262,-3.431,-3.4311,-3.4262,-3.4267,-3.4267,-3.4282,-3.4277,-3.4274,-3.426,-3.4255,-3.4268,-3.427,-3.4273,-3.4352,-3.4269,-3.4272,-3.4273,-3.4432,-3.4436,-3.4439,0,0,0,0,0,0,-3.426,-3.4266,-3.431,-3.4285,-3.429,-3.4271,-3.4288,-3.4283,-3.4291,-3.4277,-3.4273,-3.4272,-3.4266,-3.4269,-3.4313,-3.4351,-3.4273,-3.4275,-3.4429,-3.4433,-3.4437,-3.451,0,0,0,0,0,0,-3.4258,-3.4266,-3.4292,-3.4286,-3.4291,-3.4351,-3.429,-3.4285,-3.4296,-3.4289,-3.4287,-3.4284,-3.4264,-3.431,-3.4316,-3.4353,-3.4277,-3.4426,-3.4431,-3.4436,-3.4504,-3.4516,-3.4526,0,0,0,0,0,-3.4256,-3.4312,-3.4294,-3.43,-3.4323,-3.4353,-3.4356,-3.4332,-3.4299,-3.4325,-3.4316,-3.4284,-3.4346,-3.4315,-3.4321,-3.436,-3.4423,-3.4429,-3.4435,-3.4499,-3.4514,-3.4526,0,0,0,0,0,0,-3.4323,-3.4311,-3.429,-3.4346,-3.4351,-3.4342,-3.4374,-3.4348,-3.4362,-3.4355,-3.4325,-3.4325,-3.4374,-3.4371,-3.4336,-3.4425,-3.4379,-3.4387,-3.4425,-3.4439,-3.445,-3.4449,-3.428,0,0,0,0,0,-3.4344,-3.4369,-3.4357,-3.4408,-3.4411,-3.4393,-3.4405,-3.4386,-3.439,-3.4391,-3.4385,-3.439,-3.441,-3.4424,-3.4442,-3.4503,-3.4502,-3.4533,-3.4544,-3.4554,-3.4561,-3.4592,-3.4606,-3.4459,-3.4459,-3.4459,0,0,-3.4388,-3.4384,-3.4402,-3.4421,-3.4423,-3.4449,-3.4395,-3.4425,-3.4444,-3.4396,-3.4437,-3.4433,-3.4436,-3.4489,-3.4511,-3.4488,-3.4601,-3.4562,-3.4569,-3.4571,-3.46,-3.4614,-3.4626,-3.4463,-3.4462,-3.4462,0,0,-3.4481,-3.4482,-3.4523,-3.4526,-3.4529,-3.4516,-3.4526,-3.4522,-3.4517,-3.4558,-3.4522,-3.4544,-3.458,-3.4584,-3.459,-3.4685,-3.4656,-3.4692,-3.475,-3.4781,-3.4792,-3.4803,-3.4836,-3.4848,-3.4699,-3.4699,-3.4699,0,-3.4535,-3.4574,-3.4548,-3.4581,-3.459,-3.4547,-3.4589,-3.4593,-3.4602,-3.4609,-3.4583,-3.4627,-3.4626,-3.4679,-3.4702,-3.4709,-3.4719,-3.4692,-3.4793,-3.4803,-3.4812,-3.4843,-3.4856,-3.4704,-3.4703,-3.4703,-3.4702,0,-3.464,-3.4668,-3.4701,-3.4711,-3.4724,-3.4761,-3.474,-3.4756,-3.4736,-3.4726,-3.4768,-3.4766,-3.4782,-3.4793,-3.4774,-3.4843,-3.4828,-3.4798,-3.4751,-3.4831,-3.4859,-3.4871,-3.471,-3.4708,-3.4707,-3.4706,0,0,-3.4775,-3.477,-3.4783,-3.4786,-3.4787,-3.4807,-3.4843,-3.4859,-3.4873,-3.4881,-3.4909,-3.4941,-3.4912,-3.492,-3.4901,-3.4928,-3.5003,-3.4894,-3.4894,-3.4914,-3.5078,-3.51,-3.5115,-3.4984,-3.4986,-3.4988,-3.5077,0,-3.4866,-3.4926,-3.4903,-3.4964,-3.4989,-3.4949,-3.4979,-3.4983,-3.4974,-3.4994,-3.4984,-3.5007,-3.4968,-3.4972,-3.4998,-3.4989,-3.5035,-3.4982,-3.501,-3.5011,-3.5009,-3.513,-3.5153,-3.5238,-3.5089,-3.509,-3.5092,0,-3.4979,-3.4992,-3.5055,-3.5051,-3.506,-3.5088,-3.5101,-3.5121,-3.5124,-3.5115,-3.5124,-3.5099,-3.5133,-3.5086,-3.5132,-3.5096,-3.5106,-3.5104,-3.5106,-3.5107,-3.5056,-3.5133,-3.5264,-3.5276,-3.511,-3.5108,-3.5107,0,-3.5071,-3.5103,-3.5145,-3.515,-3.5146,-3.5166,-3.5166,-3.5166,-3.5177,-3.5188,-3.5195,-3.5211,-3.5219,-3.5231,-3.5211,-3.5179,-3.5259,-3.5211,-3.5253,-3.5254,-3.5271,-3.527,-3.5405,-3.5279,-3.5279,-3.5279,-3.5279,0,-3.5173,-3.5214,-3.5186,-3.5212,-3.5256,-3.523,-3.5274,-3.5269,-3.5269,-3.5293,-3.526,-3.5283,-3.5255,-3.5275,-3.526,-3.53,-3.5304,-3.5298,-3.5293,-3.53,-3.5301,-3.5306,-3.5299,-3.5282,-3.5281,-3.5281,-3.528,0,-3.5282,-3.5266,-3.5309,-3.5302,-3.5301,-3.5333,-3.5327,-3.535,-3.534,-3.537,-3.5376,-3.5359,-3.5381,-3.5362,-3.5384,-3.5373,-3.5426,-3.5414,-3.5425,-3.5421,-3.5464,-3.546,-3.5605,-3.5623,-3.5487,-3.5489,-3.549,0,-3.5349,-3.5379,-3.5375,-3.5389,-3.539,-3.5413,-3.5424,-3.5399,-3.5412,-3.5418,-3.544,-3.546,-3.5474,-3.5511,-3.5501,-3.5517,-3.5504,-3.5554,-3.5506,-3.5512,-3.5503,-3.5501,-3.5504,-3.5563,-3.5565,-3.5566,-3.5567,0,-3.5468,-3.5458,-3.5475,-3.549,-3.5504,-3.5515,-3.5522,-3.5535,-3.551,-3.5526,-3.5549,-3.556,-3.5582,-3.5601,-3.5614,-3.5613,-3.5586,-3.5583,-3.5593,-3.56,-3.5605,-3.5602,-3.5451,-3.5579,-3.5578,-3.5577,-3.5576,-3.5576,-3.5557,-3.5582,-3.5583,-3.5603,-3.5606,-3.5614,-3.5635,-3.5627,-3.5646,-3.5661,-3.5646,-3.5673,-3.5675,-3.5689,-3.5691,-3.5712,-3.5691,-3.5706,-3.571,-3.5714,-3.5719,-3.5603,-3.5714,-3.5714,-3.5714,-3.5713,-3.5713,0,-3.5674,-3.5672,-3.5691,-3.5703,-3.5719,-3.5692,-3.5699,-3.5714,-3.5739,-3.5743,-3.5757,-3.5783,-3.5802,-3.5793,-3.5809,-3.5827,-3.5815,-3.5832,-3.583,-3.583,-3.5737,-3.5726,-3.5841,-3.5841,-3.5841,-3.5841,-3.5841,-3.5841,-3.5736,-3.5776,-3.5766,-3.5807,-3.5806,-3.5832,-3.5838,-3.5845,-3.5848,-3.5878,-3.5893,-3.5887,-3.5886,-3.5902,-3.5918,-3.5915,-3.5922,-3.5943,-3.5936,-3.5849,-3.5836,-3.5824,-3.5814,-3.5945,-3.5945,-3.6026,-3.6027,-3.6027]}]]